Hourly Data Report for May 20, 2021

FISHER BRANCH (AUT)
MANITOBA
Current Station Operator: ECCC - MSC

51°05'00.100" N
97°33'16.200" W
253.00 m
50309J6
71442
WSZ

Download Data

Hourly Data (May 2021)
Hourly Data Report for May 20, 2021
TIME
LST
Temp Definition
°C
Dew Point Definition
°C
Rel Hum Definition
%
Precip. Amount Definition
mm

Wind Dir Definition
10's deg

Wind Spd Definition
km/h
Visibility Definition
km
Stn Press Definition
kPa
Hmdx Definition


Wind Chill Definition


Weather Definition


00:00 10.5 4.5 66 0.0 35 21   98.60     LegendNANA
01:00 9.5 4.4 70 0.0 35 24   98.65     LegendNANA
02:00 8.0 3.7 74 0.0 35 18   98.72     LegendNANA
03:00 6.4 3.0 79 0.0 34 20   98.78     LegendNANA
04:00 5.8 2.6 80 0.0 35 22   98.80     LegendNANA
05:00 5.7 2.4 80 0.0 35 21   98.84     LegendNANA
06:00 5.5 2.2 80 0.0 35 23   98.87     LegendNANA
07:00 6.0 2.6 79 0.0 35 17   98.90     LegendNANA
08:00 6.9 2.5 73 0.0 1 23   98.95     LegendNANA
09:00 7.3 2.6 72 0.0 36 22   98.91     LegendNANA
10:00 7.6 2.3 69 0.0 36 27   98.86     LegendNANA
11:00 8.3 2.5 67 0.0 1 22   98.84     LegendNANA
12:00 7.8 1.9 67 0.0 1 20   98.84     LegendNANA
13:00 8.3 0.7 59 0.0 1 22   98.81     LegendNANA
14:00 10.0 0.9 53 0.0 1 22   98.76     LegendNANA
15:00 9.6 1.0 55 0.0 2 20   98.79     LegendNANA
16:00 8.8 1.5 60 0.0 35 17   98.79     LegendNANA
17:00 8.1 2.3 67 0.0 36 15   98.79     LegendNANA
18:00 6.7 3.3 79 0.0 36 17   98.81     LegendNANA
19:00 7.1 3.6 78 0.0 36 15   98.83     LegendNANA
20:00 6.1 3.0 81 0.0 1 15   98.87     LegendNANA
21:00 5.8 3.0 82 0.0 1 13   98.96     LegendNANA
22:00 5.3 2.5 82 0.0 1 13   98.96     LegendNANA
23:00 4.7 2.6 86 0.0 36 15   98.99     LegendNANA

Notes on Data Quality.

Legend

  • E = Estimated
  • M = Missing
  • NA = Not Available*
  • [empty] = Indicates an unobserved value
Date modified: